Danbury, CT

2:27 PM EST on February 25, 2017 (GMT -0500)
Danbury Municipal

Weather History for KDXR - April, 2012

Change the Weather History Date:

Wednesday, April 18, 2012

  Actual Average Record
Temperature  
Mean Temperature 51 °F -  
Max Temperature 57 °F 62 °F 94 °F (1976)
Min Temperature 45 °F 37 °F 25 °F (1962)
Degree Days  
Heating Degree Days 14    
Growing Degree Days 1 (Base 50)    
Moisture  
Dew Point 33 °F    
Average Humidity 47    
Maximum Humidity 54    
Minimum Humidity 37    
Precipitation  
Precipitation 0.00 in - - ()
Sea Level Pressure  
Sea Level Pressure 30.19 in    
Wind  
Wind Speed 8 mph (NW)    
Max Wind Speed 15 mph    
Max Gust Speed 22 mph    
Visibility 10 miles    
Events      
Averages and records for this station are not official NWS values.
T = Trace of Precipitation, MM = Missing Value Source: NWS Daily Summary

Daily Weather History Graph

Daily Weather History Graph

Search for Another Location

Airport or City:

Trip Planner

Search our weather history database for the weather conditions in past years. The results will help you decide how hot, cold, wet, or windy it might be!

Date:

Astronomy

Apr. 18, 2012 Rise Set
Actual Time 6:09 AM EDT 7:37 PM EDT
Civil Twilight 5:40 AM EDT 8:06 PM EDT
Nautical Twilight 5:05 AM EDT 8:41 PM EDT
Astronomical Twilight 4:28 AM EDT 9:19 PM EDT
Moon 4:34 AM EDT (4/18) 5:25 PM EDT (4/18)
Length of Visible Light 14h 26m
Length of Day
13h 28m
Waning Crescent, 6% of the Moon is Illuminated
Apr 18
Waning Crescent
Apr 21
New
Apr 29
First Quarter
May 5
Full
May 12
Last Quarter

Hourly Weather History & Observations

Time (EDT) Temp. Windchill Dew Point Humidity Pressure Visibility Wind Dir Wind Speed Gust Speed Precip Events Conditions
12:53 AM 53.1 °F - 34.0 °F 48% 30.21 in 10.0 mi NNW 9.2 mph - N/A   Clear
1:53 AM 50.0 °F - 33.1 °F 52% 30.20 in 10.0 mi North 15.0 mph 19.6 mph N/A   Clear
2:53 AM 48.0 °F - 32.0 °F 54% 30.22 in 10.0 mi North 8.1 mph 17.3 mph N/A   Clear
3:53 AM 48.0 °F - 30.9 °F 52% 30.22 in 10.0 mi North 13.8 mph 20.7 mph N/A   Clear
4:53 AM 46.9 °F - 28.0 °F 48% 30.22 in 10.0 mi North 11.5 mph 21.9 mph N/A   Clear
5:53 AM 46.0 °F 41.4 °F 28.0 °F 50% 30.23 in 10.0 mi North 9.2 mph - N/A   Clear
6:53 AM 45.0 °F 41.8 °F 28.9 °F 53% 30.25 in 10.0 mi North 5.8 mph - N/A   Clear
8:53 AM 48.9 °F - 30.9 °F 50% 30.27 in 10.0 mi NNW 6.9 mph - N/A   Clear
9:53 AM 50.0 °F - 32.0 °F 50% 30.25 in 10.0 mi NNW 4.6 mph - N/A   Clear
10:53 AM 53.1 °F - 32.0 °F 45% 30.25 in 10.0 mi Variable 3.5 mph - N/A   Clear
11:53 AM 55.9 °F - 34.0 °F 44% 30.23 in 10.0 mi Variable 6.9 mph - N/A   Clear
12:53 PM 55.9 °F - 34.0 °F 44% 30.21 in 10.0 mi Variable 3.5 mph - N/A   Partly Cloudy
1:53 PM 57.0 °F - 34.0 °F 42% 30.21 in 10.0 mi SSW 3.5 mph - N/A   Clear
2:53 PM 57.9 °F - 32.0 °F 37% 30.18 in 10.0 mi WNW 6.9 mph - N/A   Partly Cloudy
3:53 PM 57.0 °F - 33.1 °F 40% 30.17 in 10.0 mi WSW 5.8 mph - N/A   Partly Cloudy
4:53 PM 57.0 °F - 32.0 °F 39% 30.16 in 10.0 mi NW 4.6 mph - N/A   Overcast
5:53 PM 55.9 °F - 32.0 °F 40% 30.16 in 10.0 mi West 4.6 mph - N/A   Overcast
6:53 PM 55.9 °F - 34.0 °F 44% 30.15 in 10.0 mi West 3.5 mph - N/A   Mostly Cloudy
7:53 PM 55.0 °F - 33.1 °F 43% 30.14 in 10.0 mi Calm Calm - N/A   Mostly Cloudy
8:53 PM 53.1 °F - 36.0 °F 52% 30.15 in 10.0 mi WSW 3.5 mph - N/A   Overcast
9:53 PM 54.0 °F - 35.1 °F 49% 30.14 in 10.0 mi SSE 4.6 mph - N/A   Overcast
10:53 PM 53.1 °F - 35.1 °F 50% 30.13 in 10.0 mi Calm Calm - N/A   Partly Cloudy
11:53 PM 52.0 °F - 36.0 °F 54% 30.13 in 10.0 mi Calm Calm - N/A   Clear